Погода в Ковыльном

Россия / Республика Крым     45°41′19″N   33°31′43″E
темп.,
°C
ветер,
м/с
пор.,
м/с
влажн.,
%
обл.,
%
осадки,
мм/ч
давл.,
гПа
погр.,
м
24 июня, чт
чт2400:00+21зсз358657 0.0 1014100
03:00+20з359292 0.0 1014114
06:00+21зсз348866 0.4 1013109
09:00+26сз34706 0.4 1013404
12:00+29зсз4456100 0.0 1013786
15:00+29з555676 0.5 1012620
18:00+26зюз5667100 2.6 1013315
21:00+21юз6891100 8.3 1013154
25 июня, пт
пт2500:00+21юв2281100 0.1 101312
03:00+20ю11845 0.1 101312
06:00+21юв2282100 0.0 101238
09:00+25всв236895 0.0 1012497
12:00+29св3356100 0.0 10121042
15:00+29ссз3353100 0.0 10111138
18:00+28зсз5458100 0.0 1010335
21:00+23з35775 0.0 101084
26 июня, сб
сб2600:00+21юз36897 0.4 1010120
03:00+21зюз35878 0.4 101084
06:00+21юз34855 0.0 100986
09:00+27ю22625 0.0 1009394
12:00+30ссз32522 0.0 10091163
15:00+30ссз43535 0.0 1009933
18:00+30зсз32495 0.1 1008523
21:00+25юз22694 0.1 100825
27 июня, вс
вс2700:00+22зюз35865 1.0 1009110
03:00+21юз238790 3.3 100949
06:00+21ю2386100 3.3 100973
09:00+26ююз226574 3.4 1009413
12:00+30з44533 0.4 10091191
15:00+30зсз555568 1.1 10091046
18:00+28з456081 0.0 1009434
21:00+23зюз48760 0.1 1009185
28 июня, пн
пн2800:00+22юз4781100 0.1 1010176
03:00+21зюз489199 0.1 1010221
06:00+21з379120 0.0 1010337
09:00+24з557854 0.0 1011729
12:00+25зсз567136 0.1 1012874
15:00+27сз676137 0.5 10111224
18:00+27сз67606 0.1 10121239
21:00+23сз35750 0.1 101393